Location: Bannatyne
(13.0833°N, 59.5333°W)
Time: 08:58:55
(UTC+00:00)

Vanguard 2 - Visible Passes

Search period start: 19 January 2020 00:00
Search period end: 29 January 2020 00:00
Orbit: 553 x 2938 km, 32.9° (Epoch: 18 January)

Date Brightness Start Highest point End Pass type
(mag) Time Alt. Az. Time Alt. Az. Time Alt. Az.
19 Jan 9.9 00:24:54 10° WNW 00:25:22 13° WNW 00:25:22 13° WNW visible
19 Jan 7.9 22:35:28 10° NNW 22:38:56 29° NNE 22:41:30 17° E visible
20 Jan 12.3 09:43:48 10° S 09:49:39 12° SSE 09:55:16 10° SE visible
20 Jan 7.1 22:53:01 10° NW 22:56:52 53° NNE 22:59:13 25° E visible
21 Jan 12.2 09:58:29 10° S 10:08:49 18° SSE 10:18:14 10° ESE visible
21 Jan 7.0 23:10:50 10° WNW 23:14:45 80° SSW 23:17:04 28° SE visible
22 Jan 8.2 23:28:57 10° WNW 23:32:42 40° SSW 23:35:01 23° SSE visible
23 Jan 9.3 23:47:35 10° W 23:50:43 21° SSW 23:53:06 15° S visible
24 Jan 12.1 08:42:26 10° S 08:50:38 15° SSE 08:58:50 10° ESE visible
25 Jan 10.0 00:07:29 10° SW 00:08:50 11° SSW 00:10:17 10° S visible
25 Jan 12.0 08:57:53 10° S 09:09:29 21° SE 09:20:52 10° ESE visible
25 Jan 7.6 22:14:20 10° WNW 22:18:20 54° SW 22:22:20 10° SE visible
26 Jan 11.9 09:14:14 10° SSW 09:28:03 29° SE 09:41:24 10° E visible
26 Jan 9.0 22:32:46 10° W 22:36:12 26° SW 22:39:40 10° SSE visible
27 Jan 12.1 07:29:51 10° SSE 07:32:35 11° SE 07:35:23 10° SE visible
27 Jan 11.6 09:31:04 10° SSW 09:46:26 38° SE 10:01:02 10° E visible
27 Jan 9.8 22:52:05 10° WSW 22:54:06 13° SW 22:56:07 10° S visible
28 Jan 11.9 07:42:38 10° S 07:51:24 16° SE 08:00:46 10° ESE visible
28 Jan 11.3 09:48:13 10° SSW 10:04:41 49° SE 10:20:04 10° ENE visible
